Location: Dal�� Lhota
(48.7500°N, 14.0167°E)
Time: 20:37:19
(UTC+00:00)

Transit 2A - Pass Details

Date: 03 August 2021
Orbit: 594 x 964 km, 66.7° (Epoch: 27 September)

Event Time Altitude Azimuth Distance (km) Brightness Sun altitude
Rises 09:19:08 0° 314° (NW) 3,041 8.7 51.4°
Reaches altitude 10° 09:24:10 10° 359° (N) 2,241 8.3 52.0°
Maximum altitude 09:24:40 10° 5° (N) 2,244 8.3 52.0°
Drops below altitude 10° 09:25:10 10° 11° (N) 2,265 8.3 52.1°
Sets 09:30:36 0° 55° (NE) 3,326 9.4 52.7°
